{"data":{"norad_id":64694,"intl_designator":"2025-141A","name":"GOSAT-GW (IBUKI GW)","alt_names":[],"object_type":"PAYLOAD","status":"ACTIVE","operator":null,"country":"JPN","launch_date":"2025-06-28","launch_site_code":"TANSC","launch_vehicle":null,"mission":null,"orbit_class":"UNKNOWN","rcs_meters":null,"size_class":null,"mass_kg":null,"dimensions":null,"purposes":["earth_obs"],"wikipedia_slug":null,"has_3d_model":false,"image_url":null,"decayed_at":null,"tle_current":{"epoch":"2026-05-25T03:28:32.017728Z","epoch_age_seconds":62442,"freshness":"FRESH","line1":"1 64694U 25141A   26145.14481502  .00001148  00000+0  21082-3 0  9994","line2":"2 64694  98.0567  82.8372 0001434  84.0160 276.1208 14.67554148 48460","mean_motion":14.67554148,"eccentricity":0.0001434,"inclination_deg":98.0567,"raan_deg":82.8372,"arg_perigee_deg":84.016,"mean_anomaly_deg":276.1208,"bstar":0.00021082,"rev_number":4846,"period_min":98.12244420163,"perigee_km":667.87647674277,"apogee_km":669.89756323171,"semimajor_km":7047.0240199872,"source":"CELESTRAK","updated_at":"2026-05-25T13:38:12.838648Z"}}}